[[{"header":{"parameterUnit":"m.s-1","parameterCategory":1,"la1":30.2991,"la2":30.254,"lo1":-89.0895,"lo2":-89.0444,"dy":0.0017,"dx":0.0017,"nx":28,"ny":28,"refTime":"2025-12-03T03:00:00:Z","depth":0,"parameterNumber":2,"parameterNumberName":"U-component_of_WINDS"},"data":[0,0,0,0,0,0,0,0,0,0,0,0,0,0,0,0,0,0,0,0,0,0,0,0,0,0,0,0,0,0,0,0,0,0,0,0,0,0,0,0,0,0,0,0,0,0,0,0,0,0,0,0,0,0,0,0,0,0,-0.3441,-0.3442,0,-0.3472,-0.3472,-0.3472,-0.3458,-0.3457,-0.3457,-0.3456,-0.349,-0.3491,-0.3493,0,0,0,0,0,0,0,0,0,0,0,0,0,-0.3374,-0.3375,-0.3441,-0.3442,-0.3442,-0.3472,-0.3472,-0.3472,-0.3458,-0.3457,-0.3456,-0.3456,-0.3489,-0.3491,-0.3493,0,0,0,0,0,0,0,0,0,0,0,0,0,-0.3403,-0.3375,-0.3441,-0.3439,-0.3439,-0.3471,-0.3472,-0.3472,-0.3458,-0.3457,-0.3456,-0.3455,-0.3488,-0.3491,-0.3493,-0.3531,0,0,-0.3501,-0.3502,0,0,0,0,0,0,0,0,-0.3402,-0.3406,-0.3439,-0.3439,-0.3439,-0.346,-0.346,-0.3492,-0.3459,-0.3451,-0.3456,-0.3455,-0.3481,-0.3484,-0.3492,-0.3533,-0.3534,-0.3501,-0.3502,-0.3503,-0.3504,0,0,0,0,0,0,0,-0.34,-0.3405,-0.3453,-0.3439,-0.3439,-0.3437,-0.3439,-0.3466,-0.3472,-0.3452,-0.3451,-0.3454,-0.3481,-0.349,-0.3493,-0.3535,-0.3501,-0.3503,-0.3504,-0.3505,-0.3608,-0.3609,0,0,0,0,0,0,-0.3397,-0.3403,-0.3452,-0.3454,-0.3417,-0.3439,-0.3442,-0.3454,-0.3472,-0.3473,-0.3455,-0.3453,-0.3486,-0.349,-0.3494,-0.354,-0.3503,-0.3506,-0.3507,-0.3607,-0.3608,-0.3609,0,0,0,0,0,0,-0.3396,-0.3402,-0.3451,-0.3428,-0.3434,-0.3441,-0.3455,-0.3456,-0.3465,-0.3474,-0.3476,-0.3463,-0.3485,-0.349,-0.3522,-0.3541,-0.3507,-0.3509,-0.3605,-0.3607,-0.3609,-0.3631,0,0,0,0,0,0,-0.3394,-0.3401,-0.3416,-0.3429,-0.3436,-0.3478,-0.3456,-0.3457,-0.3469,-0.3467,-0.3482,-0.3484,-0.3485,-0.3518,-0.3524,-0.3543,-0.3511,-0.3603,-0.3606,-0.3608,-0.3629,-0.3634,-0.3638,0,0,0,0,0,-0.3392,-0.3422,-0.3417,-0.3423,-0.3453,-0.3479,-0.3483,-0.3483,-0.347,-0.3485,-0.3491,-0.3483,-0.3537,-0.3522,-0.3528,-0.3548,-0.3602,-0.3605,-0.3608,-0.3627,-0.3633,-0.3638,0,0,0,0,0,0,-0.3412,-0.3423,-0.3418,-0.3453,-0.3465,-0.3477,-0.3495,-0.3489,-0.3506,-0.3504,-0.3504,-0.3507,-0.354,-0.3547,-0.3529,-0.3586,-0.3568,-0.3572,-0.358,-0.3586,-0.359,-0.3588,-0.3513,0,0,0,0,0,-0.342,-0.3439,-0.3449,-0.3479,-0.3485,-0.3489,-0.35,-0.3499,-0.3512,-0.3517,-0.3526,-0.354,-0.3559,-0.3573,-0.3592,-0.3629,-0.3633,-0.3646,-0.3651,-0.3654,-0.3659,-0.3679,-0.3685,-0.3619,-0.3619,-0.3619,0,0,-0.3438,-0.3447,-0.3459,-0.3483,-0.3492,-0.3513,-0.3494,-0.3516,-0.3532,-0.3521,-0.3551,-0.3558,-0.3573,-0.3607,-0.3623,-0.3615,-0.3677,-0.3658,-0.3661,-0.3663,-0.3682,-0.3689,-0.3694,-0.3621,-0.362,-0.362,0,0,-0.3481,-0.3489,-0.3515,-0.3524,-0.3538,-0.354,-0.3547,-0.3559,-0.3563,-0.3592,-0.3585,-0.3603,-0.3638,-0.3649,-0.3659,-0.3704,-0.3698,-0.3711,-0.3734,-0.3754,-0.3759,-0.3764,-0.3781,-0.3787,-0.3714,-0.3714,-0.3715,0,-0.3502,-0.3532,-0.3529,-0.3552,-0.3563,-0.3553,-0.3579,-0.3588,-0.3608,-0.3616,-0.3606,-0.3648,-0.3658,-0.3695,-0.3706,-0.3714,-0.3721,-0.3709,-0.3759,-0.3763,-0.3768,-0.3783,-0.379,-0.3716,-0.3716,-0.3716,-0.3715,0,-0.3557,-0.3578,-0.3597,-0.3615,-0.3628,-0.3652,-0.3654,-0.3667,-0.3664,-0.3668,-0.3698,-0.3708,-0.3729,-0.3738,-0.3736,-0.3774,-0.3768,-0.3758,-0.3741,-0.3775,-0.379,-0.3796,-0.3718,-0.3717,-0.3717,-0.3717,0,0,-0.3615,-0.363,-0.3637,-0.3645,-0.3659,-0.3675,-0.3699,-0.3718,-0.373,-0.3744,-0.3764,-0.3793,-0.3783,-0.3795,-0.3793,-0.3811,-0.3846,-0.3799,-0.3799,-0.3807,-0.389,-0.3898,-0.3905,-0.3842,-0.3843,-0.3844,-0.3888,0,-0.3659,-0.3701,-0.3698,-0.3737,-0.3757,-0.3746,-0.3767,-0.3778,-0.3782,-0.3799,-0.3803,-0.3824,-0.3809,-0.3816,-0.3833,-0.3838,-0.3863,-0.3835,-0.3861,-0.3862,-0.3859,-0.3912,-0.3921,-0.3963,-0.3894,-0.3895,-0.3896,0,-0.3717,-0.3731,-0.3772,-0.3782,-0.379,-0.3809,-0.3826,-0.3842,-0.3855,-0.3856,-0.3868,-0.3864,-0.3888,-0.3869,-0.3903,-0.3884,-0.3894,-0.3899,-0.39,-0.3904,-0.3882,-0.3918,-0.3976,-0.3983,-0.3905,-0.3904,-0.3904,0,-0.3756,-0.3785,-0.3813,-0.382,-0.3833,-0.3846,-0.3852,-0.3863,-0.3875,-0.389,-0.3897,-0.3915,-0.3925,-0.3939,-0.394,-0.3925,-0.3974,-0.3955,-0.3977,-0.3977,-0.3988,-0.3988,-0.405,-0.3994,-0.3994,-0.3994,-0.3993,0,-0.3806,-0.3832,-0.3831,-0.3848,-0.3876,-0.3873,-0.3901,-0.3906,-0.3916,-0.3934,-0.3926,-0.3944,-0.3943,-0.3961,-0.3962,-0.399,-0.3994,-0.3996,-0.3997,-0.3998,-0.3997,-0.4005,-0.4003,-0.3995,-0.3995,-0.3995,-0.3994,0,-0.3855,-0.3856,-0.3885,-0.3894,-0.3897,-0.3917,-0.3925,-0.3942,-0.3944,-0.3967,-0.3973,-0.3977,-0.3997,-0.3998,-0.4023,-0.4023,-0.4057,-0.4054,-0.4053,-0.4053,-0.4074,-0.4073,-0.4145,-0.4154,-0.4091,-0.4092,-0.4092,0,-0.3888,-0.3907,-0.3917,-0.3929,-0.3935,-0.3953,-0.3965,-0.3962,-0.3974,-0.3989,-0.4004,-0.4023,-0.4039,-0.4072,-0.4077,-0.4095,-0.4093,-0.4117,-0.4096,-0.4096,-0.4094,-0.4093,-0.4095,-0.4121,-0.4122,-0.4122,-0.4123,0,-0.3946,-0.3945,-0.3961,-0.3976,-0.399,-0.4002,-0.4014,-0.4024,-0.4023,-0.4037,-0.4057,-0.4069,-0.4092,-0.4112,-0.4129,-0.4136,-0.413,-0.4129,-0.4135,-0.4137,-0.4136,-0.4137,-0.4065,-0.4128,-0.4127,-0.4127,-0.4127,-0.4126,-0.3988,-0.4004,-0.4014,-0.4032,-0.404,-0.4051,-0.4067,-0.407,-0.4087,-0.4105,-0.4102,-0.4125,-0.4136,-0.4159,-0.4167,-0.4184,-0.4176,-0.4185,-0.4188,-0.419,-0.4192,-0.4132,-0.4188,-0.4187,-0.4187,-0.4187,-0.4187,0,-0.4046,-0.4051,-0.4068,-0.4083,-0.4098,-0.4088,-0.4101,-0.4113,-0.4133,-0.4143,-0.4158,-0.4181,-0.42,-0.4206,-0.4224,-0.4237,-0.4234,-0.4242,-0.4241,-0.4243,-0.4198,-0.4192,-0.4244,-0.4244,-0.4244,-0.4244,-0.4244,-0.4244,-0.4078,-0.4105,-0.4105,-0.4136,-0.4141,-0.4162,-0.417,-0.418,-0.4188,-0.4214,-0.4229,-0.4232,-0.4241,-0.4259,-0.4276,-0.4277,-0.4284,-0.4293,-0.4293,-0.4252,-0.4246,-0.4241,-0.4234,-0.4295,-0.4295,-0.4336,-0.4337,-0.4337]},{"header":{"parameterUnit":"m.s-1","parameterCategory":1,"la1":30.2991,"la2":30.254,"lo1":-89.0895,"lo2":-89.0444,"dy":0.0017,"dx":0.0017,"nx":28,"ny":28,"refTime":"2025-12-03T03:00:00:Z","depth":0,"parameterNumber":3,"parameterNumberName":"V-component_of_WINDS"},"data":[0,0,0,0,0,0,0,0,0,0,0,0,0,0,0,0,0,0,0,0,0,0,0,0,0,0,0,0,0,0,0,0,0,0,0,0,0,0,0,0,0,0,0,0,0,0,0,0,0,0,0,0,0,0,0,0,0,0,-6.2973,-6.2974,0,-6.3064,-6.3065,-6.3066,-6.3011,-6.3008,-6.3006,-6.3003,-6.3091,-6.3096,-6.3101,0,0,0,0,0,0,0,0,0,0,0,0,0,-6.2747,-6.2752,-6.2973,-6.2975,-6.2976,-6.3064,-6.3065,-6.3067,-6.3011,-6.3008,-6.3005,-6.3002,-6.309,-6.3095,-6.3101,0,0,0,0,0,0,0,0,0,0,0,0,0,-6.2842,-6.2753,-6.2973,-6.2959,-6.2958,-6.3064,-6.3065,-6.3067,-6.3012,-6.3008,-6.3004,-6.3,-6.3088,-6.3095,-6.3102,-6.3225,0,0,-6.3124,-6.3127,0,0,0,0,0,0,0,0,-6.2837,-6.2851,-6.296,-6.296,-6.296,-6.3022,-6.3018,-6.312,-6.3013,-6.2992,-6.3003,-6.2998,-6.3071,-6.3079,-6.3105,-6.3229,-6.3233,-6.3125,-6.3129,-6.3132,-6.3134,0,0,0,0,0,0,0,-6.283,-6.2846,-6.3009,-6.2961,-6.2961,-6.2946,-6.2955,-6.3037,-6.3052,-6.2993,-6.2989,-6.3001,-6.307,-6.3098,-6.3107,-6.3234,-6.3124,-6.3131,-6.3135,-6.3138,-6.3464,-6.3468,0,0,0,0,0,0,-6.2826,-6.2841,-6.3006,-6.3012,-6.2888,-6.2954,-6.2964,-6.3006,-6.3051,-6.3054,-6.3004,-6.2998,-6.3088,-6.3098,-6.311,-6.3257,-6.3132,-6.3139,-6.3143,-6.3459,-6.3464,-6.3469,0,0,0,0,0,0,-6.2821,-6.2841,-6.3003,-6.2926,-6.2945,-6.2962,-6.301,-6.301,-6.3038,-6.306,-6.3062,-6.303,-6.3085,-6.3099,-6.3197,-6.3259,-6.3142,-6.3148,-6.3454,-6.3461,-6.3467,-6.3552,0,0,0,0,0,0,-6.2815,-6.284,-6.2888,-6.2927,-6.295,-6.309,-6.3013,-6.3015,-6.3051,-6.3044,-6.3085,-6.3088,-6.3083,-6.3187,-6.3204,-6.3267,-6.3154,-6.3449,-6.3457,-6.3465,-6.3544,-6.356,-6.3575,0,0,0,0,0,-6.2807,-6.2907,-6.289,-6.2911,-6.301,-6.3094,-6.3106,-6.3101,-6.3056,-6.3104,-6.3118,-6.3086,-6.3249,-6.3197,-6.3216,-6.3282,-6.3445,-6.3455,-6.3464,-6.3536,-6.3557,-6.3574,0,0,0,0,0,0,-6.2872,-6.2912,-6.2894,-6.301,-6.3049,-6.3085,-6.3145,-6.3123,-6.3174,-6.3165,-6.3154,-6.3164,-6.3266,-6.3283,-6.3225,-6.3403,-6.334,-6.3354,-6.3388,-6.3408,-6.3423,-6.3417,-6.316,0,0,0,0,0,-6.2901,-6.2967,-6.2997,-6.3097,-6.3117,-6.3128,-6.3164,-6.3157,-6.3196,-6.3212,-6.3233,-6.3271,-6.3331,-6.337,-6.3426,-6.3546,-6.3553,-6.36,-6.3616,-6.3629,-6.3641,-6.3705,-6.3726,-6.3501,-6.3501,-6.3501,0,0,-6.2959,-6.2989,-6.3031,-6.3111,-6.314,-6.3208,-6.3142,-6.3216,-6.3266,-6.3222,-6.3316,-6.3333,-6.3375,-6.3484,-6.3533,-6.3502,-6.3705,-6.3641,-6.3651,-6.3656,-6.3717,-6.3738,-6.3757,-6.3508,-6.3507,-6.3506,0,0,-6.31,-6.313,-6.3216,-6.3247,-6.3293,-6.33,-6.332,-6.3359,-6.337,-6.3464,-6.3433,-6.3491,-6.3594,-6.3625,-6.3655,-6.3808,-6.3781,-6.3827,-6.3908,-6.3971,-6.3988,-6.4004,-6.4058,-6.4078,-6.3839,-6.3839,-6.3839,0,-6.3166,-6.3268,-6.3262,-6.3339,-6.3375,-6.3341,-6.3427,-6.3457,-6.3519,-6.3543,-6.3508,-6.3637,-6.3663,-6.3779,-6.3816,-6.3841,-6.3864,-6.3822,-6.3986,-6.4002,-6.4016,-6.4068,-6.4089,-6.3844,-6.3843,-6.3843,-6.3842,0,-6.3347,-6.3418,-6.3482,-6.3545,-6.3587,-6.3669,-6.3674,-6.3717,-6.3706,-6.3716,-6.3812,-6.3842,-6.3903,-6.393,-6.3919,-6.4045,-6.4024,-6.3988,-6.3924,-6.4043,-6.4092,-6.4111,-6.3852,-6.385,-6.3848,-6.3847,0,0,-6.3531,-6.359,-6.3614,-6.3641,-6.369,-6.3744,-6.3824,-6.3886,-6.3923,-6.3967,-6.4032,-6.4121,-6.4088,-6.4121,-6.4113,-6.4169,-6.4288,-6.4125,-6.4126,-6.4154,-6.4427,-6.4453,-6.4476,-6.427,-6.4274,-6.4277,-6.4423,0,-6.3675,-6.3815,-6.3812,-6.3942,-6.4007,-6.3976,-6.4045,-6.4082,-6.4093,-6.4149,-6.416,-6.4223,-6.4175,-6.4195,-6.4248,-6.4262,-6.4342,-6.4251,-6.4329,-6.4332,-6.432,-6.4502,-6.453,-6.4667,-6.4442,-6.4445,-6.4447,0,-6.3861,-6.3913,-6.405,-6.4089,-6.4117,-6.4179,-6.4235,-6.429,-6.433,-6.4334,-6.4372,-6.4356,-6.4435,-6.4369,-6.4477,-6.4416,-6.4447,-6.4459,-6.4464,-6.447,-6.4397,-6.4512,-6.471,-6.4731,-6.4477,-6.4475,-6.4473,0,-6.3981,-6.4085,-6.418,-6.4205,-6.4254,-6.4298,-6.432,-6.4357,-6.4394,-6.4443,-6.4467,-6.4524,-6.4555,-6.4599,-6.4598,-6.455,-6.4707,-6.4641,-6.4711,-6.4712,-6.4745,-6.4743,-6.495,-6.4767,-6.4767,-6.4766,-6.4766,0,-6.4142,-6.4226,-6.4235,-6.4294,-6.4387,-6.4383,-6.4475,-6.4492,-6.4526,-6.4586,-6.4562,-6.4618,-6.4614,-6.4671,-6.467,-6.4759,-6.4773,-6.4778,-6.4776,-6.478,-6.4779,-6.48,-6.479,-6.4772,-6.477,-6.4769,-6.4768,0,-6.4291,-6.4301,-6.4403,-6.4441,-6.4452,-6.452,-6.4551,-6.4606,-6.4616,-6.4692,-6.471,-6.4724,-6.479,-6.4794,-6.4869,-6.4868,-6.4977,-6.4965,-6.4964,-6.4961,-6.5031,-6.5024,-6.5258,-6.5289,-6.5086,-6.5088,-6.509,0,-6.4393,-6.4458,-6.4504,-6.4543,-6.4568,-6.4632,-6.4671,-6.4668,-6.4709,-6.4761,-6.4809,-6.4873,-6.4924,-6.503,-6.5046,-6.5103,-6.5092,-6.5171,-6.5101,-6.5102,-6.5093,-6.5089,-6.5095,-6.5184,-6.5186,-6.5188,-6.5189,0,-6.4572,-6.4574,-6.4632,-6.4692,-6.4739,-6.4785,-6.4828,-6.4862,-6.4864,-6.4911,-6.4979,-6.5019,-6.5097,-6.516,-6.5216,-6.5236,-6.5213,-6.5212,-6.5231,-6.5234,-6.5231,-6.5233,-6.5,-6.5206,-6.5204,-6.5203,-6.5202,-6.5202,-6.4701,-6.4757,-6.4798,-6.4863,-6.4896,-6.4937,-6.4991,-6.5008,-6.5065,-6.5129,-6.5124,-6.5199,-6.5237,-6.531,-6.5335,-6.5393,-6.5366,-6.5394,-6.5401,-6.5407,-6.5415,-6.5223,-6.5403,-6.5402,-6.5402,-6.5402,-6.5401,0,-6.4878,-6.4904,-6.4964,-6.5026,-6.5077,-6.5053,-6.5099,-6.5143,-6.521,-6.5248,-6.53,-6.5377,-6.5439,-6.546,-6.5519,-6.5561,-6.5552,-6.5577,-6.5573,-6.5578,-6.5436,-6.5413,-6.5583,-6.5583,-6.5583,-6.5583,-6.5583,-6.5583,-6.4977,-6.5071,-6.5077,-6.5187,-6.5211,-6.5286,-6.5314,-6.5352,-6.5382,-6.5471,-6.5523,-6.5537,-6.5568,-6.5629,-6.5684,-6.5689,-6.5711,-6.574,-6.574,-6.5607,-6.5588,-6.5571,-6.5549,-6.5745,-6.5746,-6.5878,-6.5879,-6.588]}]]